Location: Sabalos
(43.2860°N, 0.1414°E)
Time: 08:39:29
(UTC+00:00)

Cosmos 1315 Rocket - Pass Details

Date: 05 July 2020
Orbit: 530 x 568 km, 81.2° (Epoch: 14 August)

Event Time Altitude Azimuth Distance (km) Brightness Sun altitude
Rises 22:23:14 0° 341° (NNW) 2,755 8.0 -20.1°
Reaches altitude 10° 22:25:31 10° 333° (NNW) 1,860 6.7 -20.3°
Maximum altitude 22:29:17 36° 266° (W) 902 4.0 -20.5°
Enters shadow 22:30:36 28° 227° (SW) 1,067 4.1 -20.6°
